[[{"header":{"parameterUnit":"m.s-1","parameterCategory":1,"la1":30.2991,"la2":30.254,"lo1":-89.0895,"lo2":-89.0444,"dy":0.0017,"dx":0.0017,"nx":28,"ny":28,"refTime":"2025-06-21T21:00:00:Z","depth":0,"parameterNumber":2,"parameterNumberName":"U-component_of_WINDS"},"data":[0,0,0,0,0,0,0,0,0,0,0,0,0,0,0,0,0,0,0,0,0,0,0,0,0,0,0,0,0,0,0,0,0,0,0,0,0,0,0,0,0,0,0,0,0,0,0,0,0,0,0,0,0,0,0,0,0,0,-1.5489,-1.5489,0,-1.5421,-1.542,-1.5419,-1.5342,-1.534,-1.5339,-1.5338,-1.5271,-1.527,-1.527,0,0,0,0,0,0,0,0,0,0,0,0,0,-1.5557,-1.5556,-1.5489,-1.5488,-1.5488,-1.5421,-1.542,-1.5419,-1.5342,-1.534,-1.5339,-1.5338,-1.5271,-1.527,-1.527,0,0,0,0,0,0,0,0,0,0,0,0,0,-1.5512,-1.5556,-1.5489,-1.5441,-1.5436,-1.5421,-1.542,-1.5419,-1.5342,-1.534,-1.5339,-1.5337,-1.5272,-1.527,-1.5269,-1.5297,0,0,-1.5266,-1.5266,0,0,0,0,0,0,0,0,-1.5515,-1.5509,-1.5449,-1.5444,-1.5439,-1.5388,-1.5419,-1.5378,-1.5342,-1.5378,-1.5338,-1.5336,-1.5311,-1.5307,-1.5298,-1.5294,-1.5291,-1.5266,-1.5265,-1.5265,-1.5265,0,0,0,0,0,0,0,-1.5518,-1.5512,-1.5462,-1.5448,-1.5442,-1.5424,-1.5415,-1.5411,-1.5355,-1.5375,-1.5369,-1.5362,-1.5308,-1.5299,-1.5296,-1.529,-1.5266,-1.5265,-1.5264,-1.5264,-1.5306,-1.5308,0,0,0,0,0,0,-1.5528,-1.5515,-1.5464,-1.546,-1.5473,-1.5424,-1.5415,-1.5406,-1.5355,-1.5346,-1.5363,-1.5358,-1.5302,-1.5297,-1.5293,-1.5322,-1.5265,-1.5264,-1.5263,-1.5304,-1.5307,-1.5309,0,0,0,0,0,0,-1.5529,-1.5524,-1.5467,-1.5486,-1.5477,-1.5424,-1.5415,-1.5405,-1.5396,-1.5346,-1.5336,-1.5364,-1.53,-1.5295,-1.5297,-1.5319,-1.5263,-1.5262,-1.5302,-1.5305,-1.5308,-1.5382,0,0,0,0,0,0,-1.5532,-1.5525,-1.5534,-1.5487,-1.5477,-1.5471,-1.5417,-1.5405,-1.5394,-1.5387,-1.5344,-1.5336,-1.5299,-1.5299,-1.5296,-1.5317,-1.5262,-1.53,-1.5304,-1.5307,-1.5377,-1.5387,-1.5395,0,0,0,0,0,-1.5534,-1.5559,-1.5535,-1.553,-1.5487,-1.5473,-1.5467,-1.5423,-1.5396,-1.5406,-1.5374,-1.5337,-1.5317,-1.53,-1.5295,-1.5317,-1.5299,-1.5303,-1.5306,-1.5373,-1.5385,-1.5395,0,0,0,0,0,0,-1.5612,-1.5552,-1.5525,-1.5534,-1.5509,-1.5459,-1.547,-1.5437,-1.5419,-1.5413,-1.536,-1.5351,-1.536,-1.5338,-1.532,-1.5341,-1.5303,-1.5306,-1.5355,-1.5365,-1.5374,-1.5379,-1.5261,0,0,0,0,0,-1.563,-1.5622,-1.557,-1.5584,-1.5572,-1.5524,-1.5516,-1.5484,-1.5456,-1.5445,-1.5413,-1.5388,-1.5376,-1.5369,-1.5356,-1.5373,-1.5363,-1.5386,-1.5395,-1.5402,-1.5406,-1.5414,-1.5424,-1.5322,-1.5322,-1.5321,0,0,-1.5667,-1.5633,-1.5632,-1.5598,-1.5575,-1.5569,-1.5515,-1.5511,-1.5506,-1.5445,-1.5444,-1.542,-1.5389,-1.5399,-1.5402,-1.5381,-1.5432,-1.5407,-1.5414,-1.5413,-1.5419,-1.5429,-1.5437,-1.5324,-1.5324,-1.5323,0,0,-1.5732,-1.5706,-1.5714,-1.5691,-1.5656,-1.5623,-1.5626,-1.5581,-1.5562,-1.5561,-1.5514,-1.5508,-1.5489,-1.5468,-1.5456,-1.5513,-1.5479,-1.551,-1.5556,-1.5565,-1.5573,-1.558,-1.56,-1.5608,-1.5514,-1.5514,-1.5514,0,-1.5784,-1.5771,-1.5723,-1.5721,-1.5708,-1.5651,-1.5659,-1.564,-1.5603,-1.5595,-1.5573,-1.5547,-1.5522,-1.5526,-1.554,-1.5531,-1.5533,-1.5515,-1.5575,-1.5582,-1.5587,-1.5607,-1.5614,-1.5518,-1.5517,-1.5517,-1.5517,0,-1.5836,-1.5829,-1.584,-1.5804,-1.5792,-1.5796,-1.5748,-1.5742,-1.5711,-1.5682,-1.5681,-1.5649,-1.5628,-1.5626,-1.5597,-1.5627,-1.5615,-1.5585,-1.5545,-1.5602,-1.5619,-1.5626,-1.5524,-1.5522,-1.5521,-1.552,0,0,-1.5949,-1.5885,-1.589,-1.5873,-1.583,-1.5823,-1.5825,-1.5803,-1.5799,-1.5775,-1.5775,-1.576,-1.5731,-1.5717,-1.5685,-1.5692,-1.574,-1.566,-1.5659,-1.5676,-1.5771,-1.5795,-1.5804,-1.5716,-1.5718,-1.5719,-1.5774,0,-1.6006,-1.6003,-1.5959,-1.597,-1.5962,-1.5908,-1.5909,-1.5883,-1.5856,-1.5846,-1.5816,-1.5806,-1.5768,-1.5759,-1.5764,-1.5733,-1.5758,-1.5728,-1.5717,-1.5717,-1.5727,-1.5813,-1.5837,-1.5891,-1.578,-1.5781,-1.5782,0,-1.6073,-1.6052,-1.6061,-1.6017,-1.6013,-1.6014,-1.5991,-1.5982,-1.5952,-1.5931,-1.5915,-1.5878,-1.5877,-1.584,-1.5838,-1.5819,-1.5812,-1.5796,-1.5797,-1.5794,-1.5753,-1.5813,-1.5907,-1.5915,-1.5792,-1.5791,-1.5791,0,-1.6154,-1.6128,-1.613,-1.6117,-1.6066,-1.6069,-1.6048,-1.6016,-1.6006,-1.5985,-1.5978,-1.5959,-1.5948,-1.5934,-1.5893,-1.587,-1.5897,-1.5856,-1.588,-1.5882,-1.5889,-1.5889,-1.5984,-1.5884,-1.5884,-1.5884,-1.5884,0,-1.6223,-1.6231,-1.6166,-1.6167,-1.6175,-1.6124,-1.6134,-1.6108,-1.608,-1.6076,-1.6028,-1.6025,-1.5971,-1.5963,-1.5931,-1.5935,-1.5931,-1.5914,-1.5906,-1.5919,-1.5921,-1.5914,-1.5909,-1.5886,-1.5885,-1.5885,-1.5885,0,-1.6315,-1.6271,-1.627,-1.6222,-1.621,-1.6218,-1.6177,-1.6176,-1.6145,-1.6141,-1.6137,-1.6089,-1.6077,-1.6035,-1.6012,-1.5991,-1.6005,-1.5988,-1.6015,-1.6009,-1.6036,-1.6035,-1.613,-1.614,-1.6034,-1.6035,-1.6036,0,-1.6362,-1.6366,-1.6318,-1.6312,-1.6292,-1.6282,-1.6271,-1.6222,-1.6213,-1.6179,-1.6183,-1.6167,-1.6151,-1.6134,-1.6098,-1.6081,-1.6064,-1.6098,-1.6061,-1.6074,-1.6065,-1.6065,-1.6065,-1.6107,-1.6108,-1.6109,-1.611,0,-1.645,-1.6428,-1.6413,-1.6391,-1.6379,-1.6359,-1.6337,-1.6335,-1.628,-1.6272,-1.6258,-1.6246,-1.6223,-1.6208,-1.6184,-1.6164,-1.6129,-1.6122,-1.6127,-1.614,-1.6156,-1.6148,-1.6037,-1.612,-1.6119,-1.6118,-1.6118,-1.6117,-1.6521,-1.6522,-1.6489,-1.6474,-1.6451,-1.6432,-1.6429,-1.6397,-1.6385,-1.6361,-1.6333,-1.6323,-1.6293,-1.6258,-1.624,-1.6232,-1.6213,-1.622,-1.6222,-1.6224,-1.6231,-1.6157,-1.6228,-1.6228,-1.6227,-1.6227,-1.6227,0,-1.6607,-1.6582,-1.6569,-1.6538,-1.6527,-1.6493,-1.6467,-1.646,-1.6451,-1.6426,-1.6411,-1.6396,-1.638,-1.6343,-1.6324,-1.6325,-1.6309,-1.6322,-1.6322,-1.6318,-1.6249,-1.6247,-1.6336,-1.6336,-1.6336,-1.6336,-1.6336,-1.6336,-1.665,-1.6651,-1.6625,-1.6615,-1.659,-1.6579,-1.6567,-1.6549,-1.6528,-1.6512,-1.6499,-1.6474,-1.6444,-1.6423,-1.6408,-1.6397,-1.6393,-1.6412,-1.6397,-1.6333,-1.6323,-1.6313,-1.631,-1.6412,-1.6412,-1.6466,-1.6467,-1.6467]},{"header":{"parameterUnit":"m.s-1","parameterCategory":1,"la1":30.2991,"la2":30.254,"lo1":-89.0895,"lo2":-89.0444,"dy":0.0017,"dx":0.0017,"nx":28,"ny":28,"refTime":"2025-06-21T21:00:00:Z","depth":0,"parameterNumber":3,"parameterNumberName":"V-component_of_WINDS"},"data":[0,0,0,0,0,0,0,0,0,0,0,0,0,0,0,0,0,0,0,0,0,0,0,0,0,0,0,0,0,0,0,0,0,0,0,0,0,0,0,0,0,0,0,0,0,0,0,0,0,0,0,0,0,0,0,0,0,0,-0.8711,-0.8711,0,-0.8695,-0.8695,-0.8695,-0.8677,-0.8677,-0.8676,-0.8676,-0.866,-0.8659,-0.8659,0,0,0,0,0,0,0,0,0,0,0,0,0,-0.8726,-0.8726,-0.8711,-0.8711,-0.8711,-0.8695,-0.8695,-0.8695,-0.8677,-0.8677,-0.8676,-0.8676,-0.866,-0.8659,-0.8659,0,0,0,0,0,0,0,0,0,0,0,0,0,-0.8716,-0.8726,-0.8711,-0.87,-0.8699,-0.8695,-0.8695,-0.8695,-0.8677,-0.8677,-0.8676,-0.8676,-0.866,-0.8659,-0.8659,-0.8665,0,0,-0.8658,-0.8658,0,0,0,0,0,0,0,0,-0.8716,-0.8715,-0.8702,-0.8701,-0.8699,-0.8688,-0.8694,-0.8685,-0.8677,-0.8685,-0.8676,-0.8676,-0.8669,-0.8668,-0.8666,-0.8665,-0.8664,-0.8658,-0.8658,-0.8658,-0.8658,0,0,0,0,0,0,0,-0.8717,-0.8716,-0.8705,-0.8702,-0.87,-0.8696,-0.8694,-0.8692,-0.868,-0.8685,-0.8683,-0.8682,-0.8669,-0.8666,-0.8666,-0.8664,-0.8658,-0.8658,-0.8658,-0.8658,-0.8667,-0.8667,0,0,0,0,0,0,-0.8719,-0.8716,-0.8705,-0.8704,-0.8707,-0.8696,-0.8694,-0.8692,-0.868,-0.8677,-0.8682,-0.8681,-0.8667,-0.8666,-0.8665,-0.8672,-0.8658,-0.8658,-0.8658,-0.8666,-0.8667,-0.8667,0,0,0,0,0,0,-0.872,-0.8719,-0.8706,-0.871,-0.8708,-0.8696,-0.8694,-0.8692,-0.869,-0.8678,-0.8675,-0.8682,-0.8667,-0.8665,-0.8665,-0.8671,-0.8658,-0.8657,-0.8666,-0.8666,-0.8667,-0.8685,0,0,0,0,0,0,-0.872,-0.8719,-0.8721,-0.871,-0.8708,-0.8707,-0.8694,-0.8692,-0.8689,-0.8688,-0.8677,-0.8675,-0.8666,-0.8666,-0.8665,-0.867,-0.8657,-0.8665,-0.8666,-0.8667,-0.8684,-0.8686,-0.8688,0,0,0,0,0,-0.8721,-0.8727,-0.8721,-0.872,-0.8711,-0.8708,-0.8706,-0.8696,-0.869,-0.8692,-0.8684,-0.8675,-0.867,-0.8666,-0.8665,-0.867,-0.8665,-0.8666,-0.8667,-0.8683,-0.8686,-0.8688,0,0,0,0,0,0,-0.8739,-0.8725,-0.8719,-0.8722,-0.8716,-0.8704,-0.8707,-0.8699,-0.8695,-0.8694,-0.8681,-0.8679,-0.868,-0.8675,-0.8671,-0.8675,-0.8666,-0.8667,-0.8679,-0.8681,-0.8684,-0.8685,-0.8657,0,0,0,0,0,-0.8743,-0.8742,-0.873,-0.8733,-0.8731,-0.8719,-0.8718,-0.871,-0.8704,-0.8701,-0.8693,-0.8687,-0.8684,-0.8682,-0.8679,-0.8683,-0.868,-0.8686,-0.8688,-0.8689,-0.869,-0.8692,-0.8694,-0.867,-0.867,-0.867,0,0,-0.8752,-0.8744,-0.8744,-0.8737,-0.8731,-0.873,-0.8717,-0.8717,-0.8716,-0.8701,-0.8701,-0.8695,-0.8687,-0.8689,-0.869,-0.8685,-0.8696,-0.8691,-0.8692,-0.8692,-0.8693,-0.8696,-0.8698,-0.8671,-0.8671,-0.8671,0,0,-0.8768,-0.8762,-0.8764,-0.8759,-0.8751,-0.8743,-0.8744,-0.8733,-0.8729,-0.8728,-0.8717,-0.8716,-0.8711,-0.8706,-0.8702,-0.8716,-0.8708,-0.8715,-0.8726,-0.8728,-0.873,-0.8731,-0.8736,-0.8738,-0.8716,-0.8716,-0.8716,0,-0.878,-0.8778,-0.8766,-0.8766,-0.8763,-0.875,-0.8752,-0.8747,-0.8739,-0.8737,-0.8731,-0.8725,-0.8718,-0.8719,-0.8722,-0.872,-0.872,-0.8716,-0.873,-0.8732,-0.8733,-0.8738,-0.874,-0.8717,-0.8717,-0.8717,-0.8716,0,-0.8793,-0.8792,-0.8794,-0.8786,-0.8784,-0.8785,-0.8773,-0.8772,-0.8765,-0.8757,-0.8757,-0.8749,-0.8744,-0.8743,-0.8736,-0.8743,-0.874,-0.8733,-0.8723,-0.8737,-0.8741,-0.8743,-0.8718,-0.8718,-0.8718,-0.8717,0,0,-0.882,-0.8805,-0.8807,-0.8803,-0.8793,-0.8791,-0.8792,-0.8787,-0.8786,-0.878,-0.878,-0.8776,-0.8769,-0.8765,-0.8757,-0.8759,-0.877,-0.8751,-0.8751,-0.8755,-0.8777,-0.8783,-0.8786,-0.8764,-0.8764,-0.8765,-0.8778,0,-0.8834,-0.8834,-0.8824,-0.8827,-0.8825,-0.8812,-0.8812,-0.8806,-0.8799,-0.8797,-0.8789,-0.8787,-0.8778,-0.8775,-0.8776,-0.8768,-0.8774,-0.8767,-0.8764,-0.8764,-0.8767,-0.8788,-0.8794,-0.8807,-0.878,-0.878,-0.878,0,-0.8851,-0.8846,-0.8849,-0.8839,-0.8838,-0.8838,-0.8833,-0.883,-0.8823,-0.8818,-0.8814,-0.8805,-0.8804,-0.8795,-0.8794,-0.8789,-0.8787,-0.8783,-0.8783,-0.8783,-0.8773,-0.8788,-0.8811,-0.8813,-0.8782,-0.8782,-0.8782,0,-0.8871,-0.8865,-0.8866,-0.8863,-0.8851,-0.8852,-0.8847,-0.8839,-0.8836,-0.8831,-0.8829,-0.8824,-0.8822,-0.8818,-0.8807,-0.8802,-0.8808,-0.8798,-0.8804,-0.8804,-0.8806,-0.8806,-0.8829,-0.8804,-0.8804,-0.8804,-0.8804,0,-0.8888,-0.889,-0.8875,-0.8875,-0.8878,-0.8865,-0.8868,-0.8861,-0.8855,-0.8854,-0.8842,-0.8841,-0.8827,-0.8825,-0.8817,-0.8817,-0.8816,-0.8812,-0.881,-0.8813,-0.8814,-0.8812,-0.8811,-0.8804,-0.8804,-0.8804,-0.8804,0,-0.8911,-0.8901,-0.8901,-0.8889,-0.8886,-0.8889,-0.8879,-0.8879,-0.8871,-0.887,-0.8869,-0.8857,-0.8854,-0.8843,-0.8837,-0.8831,-0.8834,-0.883,-0.8837,-0.8836,-0.8842,-0.8842,-0.8865,-0.8868,-0.8841,-0.8841,-0.8842,0,-0.8923,-0.8924,-0.8913,-0.8911,-0.8907,-0.8905,-0.8902,-0.889,-0.8888,-0.8879,-0.888,-0.8876,-0.8872,-0.8867,-0.8858,-0.8853,-0.8849,-0.8857,-0.8848,-0.8852,-0.8849,-0.885,-0.885,-0.886,-0.886,-0.886,-0.886,0,-0.8945,-0.894,-0.8937,-0.8932,-0.8929,-0.8924,-0.8919,-0.8918,-0.8905,-0.8903,-0.8899,-0.8896,-0.889,-0.8886,-0.8879,-0.8874,-0.8865,-0.8863,-0.8865,-0.8868,-0.8872,-0.8871,-0.8843,-0.8863,-0.8863,-0.8863,-0.8862,-0.8862,-0.8963,-0.8964,-0.8956,-0.8953,-0.8947,-0.8943,-0.8942,-0.8934,-0.8931,-0.8925,-0.8918,-0.8916,-0.8908,-0.8898,-0.8894,-0.8891,-0.8886,-0.8888,-0.8888,-0.8889,-0.8891,-0.8872,-0.889,-0.889,-0.889,-0.889,-0.889,0,-0.8985,-0.8979,-0.8976,-0.8969,-0.8967,-0.8958,-0.8952,-0.895,-0.8948,-0.8942,-0.8938,-0.8934,-0.893,-0.892,-0.8915,-0.8915,-0.8911,-0.8914,-0.8914,-0.8913,-0.8895,-0.8895,-0.8917,-0.8917,-0.8917,-0.8917,-0.8917,-0.8917,-0.8996,-0.8997,-0.8991,-0.8989,-0.8983,-0.898,-0.8978,-0.8973,-0.8968,-0.8964,-0.896,-0.8954,-0.8946,-0.894,-0.8936,-0.8933,-0.8932,-0.8937,-0.8933,-0.8917,-0.8914,-0.8912,-0.8911,-0.8937,-0.8937,-0.895,-0.8951,-0.8951]}]]